Home > Time Zones > World Clock > Weather > Spain > Palma > Past weeks

Flag for Spain Weather past 2 weeks in Palma, Majorca, Spain

Now
63 °F

Clear.


Feels Like: 63 °F
Forecast: 51 / 73 °F
Wind: No wind

Location: Palma De Mallorca / Son San Juan

Current Time: Oct 23, 2014 at 10:05:55 PM

Latest Report: Oct 23, 2014 at 9:30 PM


Visibility: 10 mi

Pressure: 30.04 "Hg

Humidity: 52%

Dew point: 45 °F

Location of PalmaLocation

Historic Weather in Palma — Graph

°F

Palma temperature yesterday

Maximum temperature yesterday: 81 °F (at 12:30 AM)
Minimum temperature yesterday: 63 °F (at 11:30 PM)
Average temperature yesterday: 71 °F

Past Weeks' High & Low Weather Summary

 TemperatureHumidityPressure
High90 °F (Oct 19, 1:00 PM)100% (Oct 9, 2:30 AM)30.24 "Hg (Oct 9, 2:30 AM)
Low54 °F (Oct 23, 6:00 AM)26% (Oct 23, 4:30 PM)29.74 "Hg (Oct 14, 4:00 PM)
Average71 °F77%30.00 "Hg
* Reported Oct 8 8:00 PM — Oct 23 8:30 PM, Palma, Weather by CustomWeather, © 2014

Note: Actual official high and low records may vary slightly from our data, if they occured in-between our weather recording intervals... More about our weather records

Advertising

Palma weather history for previous 24 hours

 ConditionsComfort  
Time TempWeatherWind HumidityBarometerVisibility
8:30 PM
Oct 23
63 °FClear.No wind52%30.04 "Hg10 mi
8:00 PM66 °FClear.1 mph43%30.04 "Hg10 mi
7:30 PM68 °FSunny.6 mph40%30.04 "Hg10 mi
7:00 PM70 °FSunny.2 mph40%30.04 "Hg10 mi
6:30 PM73 °FSunny.6 mph33%30.04 "Hg10 mi
6:00 PM75 °FSunny.8 mph31%30.04 "Hg10 mi
5:30 PM75 °FPassing clouds.10 mph29%30.04 "HgN/A
5:00 PM77 °FSunny.9 mph28%30.04 "Hg10 mi
4:30 PM77 °FPassing clouds.9 mph26%30.04 "HgN/A
4:00 PM77 °FPassing clouds.9 mph28%30.04 "HgN/A
3:30 PM77 °FPassing clouds.7 mph32%30.07 "HgN/A
3:00 PM77 °FPassing clouds.14 mph32%30.07 "HgN/A
2:30 PM77 °FPassing clouds.10 mph36%30.07 "HgN/A
2:00 PM77 °FPassing clouds.13 mph34%30.09 "HgN/A
1:30 PM77 °FPassing clouds.12 mph39%30.09 "HgN/A
1:00 PM75 °FPassing clouds.13 mph41%30.12 "HgN/A
12:30 PM75 °FPassing clouds.10 mph44%30.12 "HgN/A
12:00 PM73 °FPassing clouds.8 mph53%30.12 "HgN/A
11:30 AM73 °FPassing clouds.5 mph53%30.15 "HgN/A
11:00 AM72 °FPassing clouds.5 mph65%30.15 "HgN/A
10:30 AM66 °FPassing clouds.1 mph73%30.15 "HgN/A
10:00 AM63 °FPassing clouds.No wind77%30.15 "HgN/A
9:30 AM59 °FPassing clouds.No wind82%30.15 "HgN/A
9:00 AM57 °FPassing clouds.No wind88%30.15 "HgN/A
8:30 AM55 °FPassing clouds.No wind94%30.15 "HgN/A
8:00 AM54 °FPassing clouds.1 mph94%30.15 "HgN/A
7:30 AM54 °FPassing clouds.No wind94%30.15 "HgN/A
7:00 AM55 °FPassing clouds.No wind88%30.15 "HgN/A
6:30 AM55 °FPassing clouds.No wind88%30.15 "HgN/A
6:00 AM54 °FPassing clouds.1 mph88%30.15 "HgN/A
5:30 AM55 °FPassing clouds.No wind88%30.15 "HgN/A
5:00 AM55 °FPassing clouds.3 mph88%30.18 "HgN/A
4:30 AM55 °FPassing clouds.No wind88%30.18 "HgN/A
4:00 AM55 °FPassing clouds.No wind88%30.21 "HgN/A
3:30 AM57 °FPassing clouds.No wind82%30.21 "HgN/A
3:00 AM57 °FPassing clouds.1 mph88%30.21 "HgN/A
2:30 AM57 °FPassing clouds.No wind88%30.21 "HgN/A
2:00 AM59 °FClear.No wind82%30.21 "Hg10 mi
1:30 AM59 °FClear.No wind82%30.21 "Hg10 mi
1:00 AM59 °FClear.2 mph82%30.21 "Hg10 mi
12:30 AM61 °FPassing clouds.5 mph77%30.24 "HgN/A
12:00 AM63 °FPassing clouds.2 mph73%30.24 "HgN/A
11:30 PM
Oct 22
63 °FPassing clouds.3 mph73%30.24 "HgN/A
11:00 PM64 °FPassing clouds.3 mph68%30.24 "HgN/A
10:30 PM64 °FPassing clouds.5 mph68%30.24 "HgN/A
10:00 PM64 °FPassing clouds.7 mph68%30.21 "HgN/A
Weather by CustomWeather, © 2014

See weather overviewHow to use our weather pages